User: anonymous   Login
Location: Unspecified
(0.0000°N, 0.0000°E)
Time: 19:53:53
(UTC+01:00)
Language:

ARIANE 5 R/B - Orbit

View from above orbital plane
View from above orbital plane
View from above satellite
View from above satellite

Ground track
Ground track

The orbit data is extracted from the following two-line orbital elements,

1 29646U 06054D   15026.40196867  .00001391  00000-0  57001-3 0  8277
2 29646 003.1024 006.1114 7131253 236.5843 352.4633 02.46236568 69985
Epoch (UTC): 26 January 2015 09:38:50
Eccentricity: 0.7131253
inclination: 3.1024°
perigee height: 267 km
apogee height: 33306 km
right ascension of ascending node: 6.1114°
argument of perigee: 236.5843°
revolutions per day: 2.46236568
mean anomaly at epoch: 352.4633°
orbit number at epoch: 6998

The dashed part of the orbit path shows where the satellite is in the earth's shadow,  

DLR